Lid_Strength_Index
2 2 2 2 2 2 2 2 2 2 2 2 2 2 2 2 2 2 2 2 2 2 2 2 2 1 2 6 7 2 -2 -1 0 5 5 5 6 6 9 8 6 8 7 6 6 6 6
2 2 2 2 2 2 2 2 2 2 2 2 2 2 2 2 2 2 2 2 3 2 2 2 2 1 5 10 3 2 1 2 3 6 5 4 5 5 7 8 8 7 7 7 6 6 6
3 2 3 3 2 2 2 2 2 2 2 2 2 2 2 2 2 2 3 3 3 3 2 2 1 1 4 7 2 2 4 5 5 6 5 4 3 6 7 8 5 6 9 7 7 7 8
3 3 3 3 3 3 2 2 2 2 2 2 2 2 2 2 3 3 3 3 3 2 1 1 1 3 8 3 3 4 4 5 4 6 5 4 3 6 8 7 7 8 9 12 8 7 6
3 3 3 3 3 2 2 2 2 2 3 3 3 3 3 3 3 3 3 3 3 1 0 0 4 5 8 1 4 4 4 4 4 5 5 2 5 7 7 11 12 9 14 13 11 7 8
3 3 3 3 2 2 2 2 2 3 3 3 3 3 3 3 3 4 4 3 3 2 2 1 2 7 5 5 5 4 4 3 4 5 5 6 7 9 11 13 15 12 12 11 12 9 9
4 3 3 3 3 3 3 3 3 3 3 3 3 3 3 3 4 4 5 5 5 7 5 8 7 6 5 3 3 5 4 4 6 7 9 7 10 11 11 10 10 10 10 10 10 8 10
3 3 4 3 3 3 3 3 3 3 3 3 3 3 4 4 4 5 6 7 5 6 8 4 5 5 4 5 6 5 4 7 8 9 8 10 11 8 7 8 9 10 11 10 9 8 9
3 3 3 3 3 3 3 4 4 4 4 4 4 4 4 5 5 6 6 5 3 3 8 7 5 5 5 5 6 6 5 7 7 9 9 11 9 7 8 8 9 9 12 10 10 8 9
2 3 3 3 3 3 3 3 3 3 4 4 4 4 4 5 7 6 6 4 4 3 11 9 8 5 4 4 7 5 5 6 7 8 9 10 7 8 9 10 10 14 8 8 8 11 13
2 2 3 3 3 3 3 3 3 4 4 4 4 4 5 6 9 7 4 5 5 7 16 7 9 4 5 7 7 6 5 6 8 8 9 9 9 9 10 9 8 10 8 8 8 11 13
2 3 3 3 3 3 3 4 4 4 4 4 4 5 5 7 8 7 5 5 6 11 15 9 7 7 8 8 7 6 6 6 6 8 9 9 6 8 9 7 8 8 9 10 10 12 15
3 3 3 3 3 3 4 4 4 4 5 5 5 6 7 4 5 4 4 6 11 15 8 9 10 9 10 11 9 8 9 9 10 12 12 10 8 7 7 9 7 10 14 16 16 16 16
3 3 3 3 3 4 4 4 4 4 5 5 6 7 7 5 5 3 5 9 16 10 10 8 8 9 10 10 10 9 10 11 9 10 12 13 12 9 7 9 10 12 13 16 18 17 15
3 3 3 3 3 4 4 4 4 5 5 6 7 8 7 4 4 4 7 13 13 10 8 9 9 10 11 9 9 11 11 11 9 9 11 13 12 7 8 7 9 12 13 12 15 14 16
3 3 3 3 3 4 4 4 5 5 5 7 7 6 5 2 3 5 9 13 10 7 7 8 11 9 11 10 10 10 11 9 9 8 9 11 13 9 8 8 10 10 10 15 16 17 18
3 4 4 3 3 4 4 4 5 5 6 8 7 7 4 2 4 7 12 11 8 6 7 9 10 10 10 10 10 11 11 8 6 7 8 11 11 11 10 12 12 12 13 14 15 15 17
3 4 4 4 4 4 4 4 5 6 7 7 8 9 4 3 8 9 11 9 7 7 7 8 8 9 10 9 10 10 10 9 6 7 10 10 12 14 11 9 9 11 12 15 16 17 15
3 3 4 4 4 4 4 5 5 6 6 9 8 8 4 4 11 11 9 9 9 9 8 8 8 8 8 10 11 9 9 6 6 7 10 9 13 15 13 11 10 11 10 14 14 16 16
4 3 3 4 4 4 4 4 5 5 6 8 7 10 9 8 9 10 11 11 11 8 9 8 9 9 10 11 11 10 10 8 7 7 6 7 13 14 16 14 12 12 10 10 12 15 15
4 4 4 4 4 4 4 4 5 6 6 7 8 10 9 12 11 10 11 10 10 11 10 9 9 9 11 13 12 12 10 10 8 6 8 9 14 12 12 10 10 11 11 10 12 12 14
4 4 4 4 4 4 4 4 5 6 6 7 10 10 10 10 9 10 11 11 10 9 9 10 10 8 9 12 11 12 12 12 11 9 11 10 13 12 13 10 10 12 10 10 10 9 10
4 4 4 4 4 4 4 4 5 6 7 8 7 7 9 10 10 11 11 9 9 9 9 8 8 10 10 10 9 10 10 10 10 11 11 11 11 13 15 12 11 14 11 10 10 9 9
4 4 5 5 5 4 4 5 5 6 7 10 8 8 10 11 10 10 8 8 8 9 10 8 8 9 8 7 8 8 9 9 9 10 10 12 12 12 15 14 19 12 8 8 9 9 9
4 5 5 5 5 5 4 4 5 5 6 9 7 7 9 11 9 8 8 8 9 9 9 8 7 7 7 8 11 12 12 12 10 9 10 10 12 13 15 17 12 10 9 9 11 12 9
4 4 5 5 5 5 5 5 5 5 5 8 7 5 8 10 10 8 9 8 11 11 10 9 7 7 8 10 11 16 16 13 13 11 9 10 11 12 14 17 18 12 9 7 7 13 9
4 4 5 5 5 5 5 5 4 4 4 7 8 6 7 10 9 9 10 10 9 10 11 10 9 8 8 11 13 14 14 10 14 14 13 13 13 14 15 15 13 10 8 7 14 14 8
4 4 4 4 5 5 4 4 4 4 4 6 8 6 7 10 9 7 6 9 9 10 11 10 10 9 10 12 13 13 14 12 13 12 13 14 16 16 15 16 17 8 9 12 11 8 7
3 3 3 3 3 4 4 4 4 4 4 5 10 7 6 9 9 7 6 6 6 6 8 10 9 9 9 11 11 12 12 11 13 16 10 15 12 14 13 14 9 7 8 7 7 8 7